GFSGL_700_spd_024.txt.gz
Wind_Speed
37 38 40 42 43 44 44 45 44 41 38 37 38 39 40 41 43 45 46 48 48 46 46 48 49 51 53 54 55 57 59 60 66 65 59 55 53 53 51 47 46 47 51
39 39 40 42 42 40 39 37 37 36 38 39 40 41 43 45 46 47 47 48 50 51 52 52 53 55 57 59 60 61 62 63 67 73 68 63 60 55 54 54 50 46 47
36 38 39 37 35 34 34 33 34 36 38 40 43 44 44 44 44 46 48 50 51 53 56 58 59 59 60 60 62 64 66 67 68 73 76 72 67 64 61 59 58 55 51
37 37 36 34 33 32 32 34 37 38 40 41 41 41 43 44 46 47 49 53 56 58 60 62 64 64 62 61 62 64 66 69 70 72 76 75 73 69 67 66 65 62 59
36 35 33 31 33 35 36 38 40 40 38 38 40 41 42 42 45 49 53 56 60 62 61 60 59 59 60 61 61 60 62 65 68 72 75 76 76 73 69 68 69 68 67
34 32 32 34 36 39 39 39 37 38 39 40 39 40 40 43 47 51 56 61 63 60 56 55 56 58 61 61 64 67 67 67 67 68 71 73 74 73 73 71 68 68 69
30 35 38 39 40 39 36 37 39 40 39 38 38 39 42 45 49 54 60 62 57 54 55 57 58 59 61 62 59 56 55 57 60 63 66 66 69 68 71 72 73 71 70
37 38 38 39 37 35 38 40 41 40 38 37 38 41 45 47 52 57 62 58 53 53 56 57 57 57 54 51 47 44 42 41 41 43 49 54 58 63 66 68 71 74 76
36 36 37 35 34 37 40 42 41 39 39 39 41 44 46 49 53 58 60 55 53 54 55 54 52 51 47 44 43 43 42 41 41 42 44 46 47 49 51 59 66 71 75
32 31 33 34 36 40 41 41 38 39 39 40 41 45 48 50 55 58 57 55 55 55 53 51 49 46 44 39 38 39 40 40 44 46 48 50 52 54 55 57 59 63 66
31 33 33 35 38 39 41 37 38 39 39 40 43 45 49 52 55 57 54 54 54 54 51 50 45 40 39 37 37 38 41 44 46 49 51 54 56 56 57 57 59 63 67
33 33 35 37 40 41 39 38 39 38 38 40 43 46 49 53 55 55 51 50 49 48 49 49 43 36 34 34 35 36 38 42 45 48 51 53 55 57 58 58 60 60 64
33 35 36 37 40 39 40 40 40 38 39 41 45 49 51 53 55 51 49 47 44 45 46 46 41 37 34 32 31 33 36 37 41 45 49 53 53 55 56 59 62 60 61
35 37 38 39 39 40 39 38 39 37 39 43 47 51 53 55 56 50 48 45 43 43 43 42 40 38 36 34 33 32 33 35 39 43 50 51 53 57 60 57 54 51 55
37 39 41 41 40 41 39 39 36 37 41 45 49 53 56 57 55 49 47 43 43 43 43 42 39 37 36 34 33 33 33 35 39 43 43 38 30 23 21 22 28 33 40
39 40 41 39 40 40 38 37 38 40 44 47 50 54 56 56 51 48 44 40 41 41 39 39 37 36 36 35 35 35 33 34 36 38 34 21 20 22 22 24 29 27 35
41 42 40 40 38 38 38 39 40 41 45 48 51 54 54 50 45 44 40 38 39 39 39 39 38 37 36 35 35 35 35 33 34 32 29 25 25 27 30 25 26 29 22
45 43 40 40 39 37 37 39 41 44 45 48 50 51 49 42 41 40 38 35 34 34 36 36 35 35 34 33 33 32 31 31 31 30 28 26 23 25 27 27 21 20 16
44 43 42 40 38 36 37 38 41 45 49 52 50 44 41 38 37 37 36 36 33 31 31 31 33 33 33 32 31 29 29 28 28 27 27 28 29 31 30 29 27 22 17
43 44 42 40 38 37 38 39 44 47 50 49 45 39 33 32 30 30 31 30 30 30 29 30 30 31 32 31 30 29 26 25 25 24 25 25 24 25 26 27 27 24 25
45 45 41 39 38 38 39 42 46 47 46 43 40 36 33 31 28 27 26 27 27 27 27 27 28 29 30 30 30 29 27 26 26 25 24 25 25 23 23 24 23 21 23
44 44 42 41 42 42 43 45 46 44 42 40 34 33 33 30 27 26 25 25 25 26 27 27 27 29 29 30 30 29 28 28 26 26 24 23 23 22 22 21 20 21 21
46 46 47 47 46 45 45 45 44 42 40 36 31 30 30 28 27 25 24 24 24 25 26 26 26 26 27 28 29 30 30 31 29 28 24 21 20 19 18 17 17 19 20
52 53 53 52 50 48 46 43 42 39 36 31 30 29 27 25 25 24 23 23 22 24 26 25 25 25 25 26 27 27 28 30 28 27 25 21 19 18 17 16 15 16 19
57 57 55 53 50 46 43 41 38 36 31 28 27 27 24 22 21 20 21 21 21 23 23 24 25 24 24 25 25 25 26 27 27 26 24 21 18 16 14 14 14 14 15
46 46 45 44 42 39 37 35 32 28 26 25 25 22 19 17 17 16 18 19 20 22 23 24 25 25 23 23 23 23 23 23 24 24 23 21 19 17 15 12 11 11 12

GFSGL_700_spd_030.txt.gz
Wind_Speed
32 37 39 39 37 36 36 37 38 38 38 38 37 37 37 37 37 37 38 39 40 40 40 41 42 43 44 46 48 51 53 57 63 61 62 62 55 54 56 61 64 65 65
41 41 38 36 34 36 36 36 37 38 38 37 37 36 36 37 38 40 40 40 40 41 42 42 42 44 46 48 49 51 53 55 59 62 62 65 66 62 58 58 61 66 68
42 38 34 33 36 36 37 37 37 37 36 36 36 36 38 40 40 39 39 40 41 41 41 42 44 46 48 50 52 54 55 55 57 60 62 63 65 67 68 63 59 61 66
35 33 34 36 35 37 37 36 36 35 35 36 37 40 40 39 39 40 41 41 40 40 42 43 44 46 49 52 55 55 56 56 56 57 58 59 59 60 62 64 62 57 57
32 35 35 36 37 37 35 35 33 34 36 38 39 40 39 39 41 40 41 40 40 41 42 44 45 47 51 54 56 56 56 54 54 55 56 56 55 56 59 60 60 59 55
35 35 35 37 36 34 33 31 33 35 38 39 40 41 40 42 42 41 40 41 41 42 44 45 47 51 53 55 57 57 54 53 53 53 53 54 53 53 52 52 53 51 51
35 34 35 35 34 33 32 33 36 38 39 41 42 43 43 45 44 42 41 42 43 44 45 46 49 52 55 57 58 55 52 51 50 50 51 49 50 46 45 44 46 48 46
34 31 30 32 32 33 36 38 39 40 41 42 44 44 46 48 45 43 43 43 44 45 46 48 51 53 55 58 58 54 52 50 47 45 46 44 44 41 41 40 43 46 46
30 27 28 30 34 38 40 39 39 40 41 42 43 46 47 47 46 45 45 45 46 45 46 49 52 54 55 57 55 52 49 46 43 42 43 43 41 38 37 39 40 43 45
26 27 31 34 35 35 35 37 38 39 41 43 45 47 48 46 45 46 46 46 46 46 48 51 53 54 55 55 51 48 48 46 44 41 39 38 37 36 33 34 36 41 43
27 28 29 30 31 32 34 36 38 40 42 44 45 46 47 47 46 45 45 45 46 48 51 53 53 53 53 49 45 44 44 44 43 42 40 37 34 34 34 35 35 38 40
27 28 29 29 30 31 33 36 38 39 41 43 45 46 47 46 46 45 44 44 46 51 53 55 55 54 49 45 41 41 41 41 41 41 40 37 36 34 34 34 35 36 37
27 28 29 30 30 33 36 37 38 40 41 43 45 47 47 46 44 43 43 44 47 51 54 55 53 50 45 41 39 38 39 40 40 39 38 37 37 37 36 35 34 34 36
27 28 29 31 33 35 36 36 36 38 41 44 46 46 46 44 42 42 42 44 47 51 55 52 46 43 40 39 38 36 36 37 39 39 38 36 35 35 37 36 36 33 37
30 32 32 34 35 35 34 34 36 39 41 43 43 43 42 43 43 41 41 44 48 51 50 45 41 38 36 35 34 34 34 35 37 37 36 35 34 35 34 34 35 36 37
31 34 35 36 35 33 34 37 37 39 41 41 41 43 43 42 40 41 41 45 48 47 46 40 38 35 34 32 31 31 32 33 34 34 34 35 34 33 33 31 32 35 38
33 35 36 37 35 36 39 40 40 41 41 41 42 42 43 41 40 40 42 45 47 45 41 37 35 32 31 31 30 30 29 29 30 31 31 32 33 32 32 31 31 33 35
35 36 37 37 38 41 42 43 44 44 44 44 43 42 41 41 39 39 43 45 45 43 39 35 32 31 30 29 29 29 28 28 28 28 30 31 32 32 32 31 31 32 33
37 38 39 40 42 44 46 47 48 47 46 46 45 43 41 41 39 39 42 44 43 40 36 33 30 30 30 29 28 28 27 27 27 28 29 30 30 31 30 30 30 30 31
39 39 40 43 46 49 51 51 51 49 48 48 48 46 43 41 41 40 42 44 43 38 34 32 29 30 30 29 29 28 26 27 27 27 28 30 30 31 31 30 27 27 26
40 41 43 47 51 53 54 54 53 52 52 51 50 48 47 45 42 40 41 43 42 36 33 31 29 29 29 29 28 28 27 27 27 27 28 28 30 30 28 27 26 25 26
41 44 48 52 54 55 56 58 58 58 57 55 52 50 49 48 45 41 40 41 39 35 33 30 28 27 27 26 26 26 26 26 27 27 27 26 27 28 27 27 25 23 23
44 48 50 53 55 57 58 58 58 57 57 56 55 53 51 48 45 41 39 40 36 33 30 28 26 24 24 24 25 25 25 26 27 26 26 26 26 26 26 26 25 23 21
45 48 50 52 53 53 51 50 52 53 54 53 51 48 46 44 41 38 37 37 32 30 27 24 22 22 23 24 24 25 25 26 27 26 26 26 26 25 25 25 24 22 21
42 45 48 48 46 46 48 48 45 43 41 40 39 38 38 37 35 35 34 32 29 25 23 22 21 22 23 23 24 24 24 24 26 26 25 25 24 24 24 24 23 21 20
41 43 42 41 41 42 41 37 33 30 27 27 27 29 31 32 31 30 29 27 24 21 21 21 21 22 22 23 24 24 24 23 24 24 24 24 24 23 22 21 21 20 19

GFSGL_700_spd_036.txt.gz
Wind_Speed
30 30 31 32 33 35 36 36 38 40 42 42 40 39 40 42 42 42 43 42 42 42 40 39 39 38 37 37 39 40 42 44 49 51 51 54 54 55 52 51 53 53 53
32 33 34 35 36 37 37 39 42 42 41 38 38 40 41 42 42 42 41 41 41 40 39 37 37 37 38 39 40 41 43 45 49 53 53 53 56 58 59 58 54 54 55
34 35 36 36 38 38 40 43 44 39 36 37 39 41 42 42 41 41 41 41 39 39 37 37 38 39 39 39 41 42 44 46 48 51 55 55 57 59 60 60 59 56 55
35 36 37 38 39 41 43 44 39 36 37 39 40 41 41 39 40 41 42 41 39 38 38 40 41 41 40 41 42 44 46 48 49 50 54 57 59 57 59 59 55 52 51
36 37 39 39 42 45 44 42 37 38 39 40 41 40 37 38 40 42 43 42 41 41 42 42 42 42 42 43 45 46 47 49 50 53 57 60 60 60 59 56 54 51 46
37 39 39 41 45 46 43 43 39 40 40 40 39 37 36 38 40 42 42 42 42 42 43 43 44 45 44 45 46 46 48 50 51 55 59 61 61 59 55 53 51 50 48
37 36 40 44 45 45 44 40 40 40 40 38 36 36 37 39 41 40 41 41 41 42 43 43 45 46 47 46 46 46 47 48 52 56 60 61 59 55 53 50 47 46 45
36 40 44 45 43 43 40 41 40 39 38 36 36 37 39 39 38 39 40 40 40 40 42 45 48 50 48 47 46 46 47 50 52 56 57 56 55 54 51 50 49 48 46
40 42 42 41 40 40 41 39 38 37 36 36 37 38 36 36 38 39 38 39 39 39 42 46 49 49 48 46 46 47 50 52 54 54 52 52 51 48 47 49 47 47 46
38 36 37 39 39 40 37 35 34 34 35 36 36 35 35 35 36 38 39 38 37 40 43 45 46 46 47 47 46 49 52 54 55 54 51 48 46 44 42 42 44 45 46
34 36 37 38 37 35 34 33 32 33 34 35 34 34 34 36 37 38 39 38 39 42 44 45 46 46 47 47 46 49 52 55 54 52 50 47 43 42 39 38 38 40 43
35 36 35 33 32 31 32 32 33 34 34 34 34 35 37 39 38 39 40 41 43 45 46 47 47 47 47 45 47 49 52 53 52 50 46 43 41 39 37 36 35 35 37
32 30 29 29 29 30 31 31 33 33 34 35 36 39 40 39 40 41 42 44 46 47 47 48 49 48 47 46 46 49 51 51 50 48 43 40 39 37 36 36 33 34 35
28 27 27 27 28 30 31 33 34 35 37 38 40 41 41 42 43 43 45 46 47 47 48 50 49 47 47 46 46 49 50 49 47 45 41 39 37 36 35 36 36 34 33
27 28 29 29 31 32 34 37 39 40 41 42 43 44 45 45 45 45 46 46 48 49 50 51 49 47 47 45 46 48 48 47 45 41 40 39 36 35 34 34 35 36 35
30 32 33 34 35 37 38 41 43 43 43 45 47 47 47 47 47 48 48 49 50 50 52 52 49 48 46 45 45 46 46 45 42 39 38 38 37 36 36 34 35 37 37
31 35 37 37 38 40 42 43 44 44 45 47 47 48 49 50 49 49 51 53 54 55 54 51 50 48 45 45 45 45 45 43 40 37 37 36 36 35 36 35 35 36 35
35 38 40 40 41 41 41 42 43 45 46 47 48 49 49 48 49 52 56 59 59 57 54 51 49 46 45 45 44 43 43 41 37 36 36 35 34 34 34 34 33 35 35
38 40 40 40 41 43 43 42 42 44 45 46 46 46 46 50 56 59 60 60 58 56 54 51 49 47 45 44 42 42 42 40 36 34 33 32 32 32 32 32 32 31 33
39 39 39 42 43 43 40 39 41 42 43 43 45 50 55 58 60 61 62 61 59 56 53 51 48 45 44 42 40 40 40 37 33 31 30 30 30 30 31 30 30 31 30
38 40 42 42 40 37 36 37 39 40 44 48 53 57 58 60 62 64 63 60 57 52 49 48 45 42 40 40 38 38 37 34 30 28 28 28 28 28 28 28 28 28 29
38 40 38 36 34 34 36 39 42 45 50 53 53 57 59 61 61 59 59 58 56 53 47 44 40 37 35 36 35 35 33 29 27 26 27 27 26 27 26 26 26 26 26
35 34 33 33 34 37 39 43 46 49 51 53 57 57 57 55 54 54 50 47 45 43 40 38 35 32 32 32 32 31 28 25 25 24 25 25 25 25 25 24 24 24 23
30 30 32 35 38 41 44 46 48 50 53 53 53 52 49 49 47 44 40 37 33 30 29 29 29 28 29 29 28 26 24 22 22 23 24 24 24 24 24 23 23 23 22
30 33 36 39 42 45 47 50 51 51 50 49 46 42 41 40 37 33 30 26 21 20 20 21 22 23 24 24 23 22 21 21 21 22 23 23 22 23 23 22 22 22 22
34 37 40 43 46 48 50 50 49 46 44 41 37 34 32 30 27 25 22 19 16 15 15 16 17 18 19 19 19 19 19 19 20 21 22 22 22 21 22 21 21 22 22

GFSGL_700_spd_042.txt.gz
Wind_Speed
30 29 29 29 30 31 32 33 34 34 35 35 34 34 34 33 37 39 37 37 39 40 41 41 41 39 35 33 33 32 33 35 39 40 41 44 48 51 51 50 49 49 48
30 29 28 30 31 33 34 35 36 36 36 36 35 36 34 35 39 38 36 39 40 40 40 39 37 34 32 31 31 32 34 34 36 38 40 44 48 50 50 48 47 48 49
30 28 29 30 32 34 35 37 38 38 37 37 36 35 34 38 40 38 37 39 39 39 38 36 34 31 31 31 32 31 30 32 36 40 42 46 50 50 50 50 51 50 51
32 30 31 31 32 34 36 38 39 39 39 38 37 37 37 39 39 36 37 39 38 36 35 34 31 31 31 31 30 28 29 32 36 40 44 47 51 50 51 54 54 53 52
33 31 31 32 35 36 38 40 40 40 40 40 40 39 38 37 36 35 38 37 36 34 33 32 31 31 32 32 28 29 32 35 39 43 46 49 51 52 53 54 58 57 55
34 32 31 35 38 37 40 41 40 41 42 43 42 41 35 35 35 37 37 36 34 34 33 32 32 33 33 31 30 32 36 39 42 46 50 51 50 51 53 56 58 60 62
34 32 34 37 37 37 41 41 41 42 42 45 44 38 32 34 37 37 35 34 34 34 33 33 34 35 34 32 33 35 38 41 44 48 50 49 49 50 53 56 58 59 59
35 36 38 39 39 38 41 42 42 42 44 45 43 32 34 36 36 35 34 35 34 33 34 34 36 38 36 35 36 37 40 42 45 49 51 50 50 50 52 56 59 60 57
41 42 42 42 37 37 41 43 42 41 45 41 30 34 37 35 34 34 34 35 35 35 36 37 39 40 39 39 40 41 42 43 45 49 50 50 48 48 51 55 56 58 56
45 42 44 38 37 38 41 43 40 39 33 31 35 36 35 33 34 34 34 36 37 37 39 40 41 41 42 41 42 42 43 43 47 50 50 50 47 47 48 52 55 55 52
45 45 36 33 33 36 37 34 32 29 32 35 34 33 32 32 33 33 35 38 38 40 41 41 41 41 42 43 44 44 44 45 48 50 52 51 48 46 46 48 51 51 48
31 27 27 27 30 32 30 27 29 32 33 31 30 30 30 31 32 34 37 39 40 41 42 42 42 43 43 45 45 45 45 48 50 53 52 51 48 45 46 46 47 47 43
22 24 28 30 28 27 28 30 31 30 28 28 29 30 31 33 34 37 39 41 42 44 43 43 44 45 45 46 47 49 49 51 54 56 53 50 47 46 45 45 45 45 40
26 26 27 28 28 29 29 27 26 26 27 29 32 34 35 37 38 39 40 42 45 46 45 47 47 48 48 49 50 50 51 54 56 55 53 50 48 46 44 44 45 45 39
25 26 27 27 26 25 24 24 26 27 30 32 35 37 39 39 40 42 43 45 46 47 47 48 49 50 51 52 52 52 54 56 56 53 52 49 46 45 43 42 43 43 38
24 25 25 24 24 25 26 28 30 32 35 37 39 40 40 41 42 44 45 45 46 47 50 51 50 52 52 54 56 59 59 57 56 55 53 49 46 44 42 39 41 40 35
24 24 25 26 27 29 29 32 35 38 40 42 42 42 42 42 43 44 46 46 46 49 50 52 54 55 57 61 61 61 60 58 57 55 52 48 46 42 40 37 38 35 32
26 27 29 30 32 34 35 38 41 43 44 44 43 42 43 43 45 46 45 45 47 49 51 54 57 60 60 60 61 61 59 58 56 53 49 45 44 41 37 35 34 32 31
31 32 33 34 36 38 40 41 43 44 44 44 43 43 44 46 44 43 43 46 49 51 55 58 58 59 60 61 60 60 59 57 54 49 45 41 40 37 35 33 30 29 30
34 36 37 37 38 40 40 41 42 42 42 42 42 45 44 41 41 43 46 49 52 55 56 57 59 60 60 59 59 57 55 52 49 45 40 38 36 33 32 29 26 26 27
37 38 39 39 40 41 41 40 40 39 39 42 42 39 39 41 43 46 49 52 54 55 57 58 57 57 56 55 54 51 48 45 41 38 36 35 31 29 29 25 23 24 25
36 36 36 37 38 38 38 38 37 38 38 36 37 39 42 44 47 50 52 55 57 58 57 54 51 49 48 48 46 43 39 34 31 31 31 28 26 25 24 21 21 22 23
34 34 34 35 35 35 35 35 33 32 34 36 38 41 44 47 50 52 54 55 54 52 49 45 42 40 40 37 34 30 26 23 24 27 25 24 22 21 20 19 19 20 21
35 36 36 35 34 32 31 31 32 34 36 38 41 44 46 48 50 52 51 47 44 42 40 37 35 32 29 26 24 20 17 17 20 21 21 20 19 18 17 17 18 19 19
35 35 33 32 30 31 32 33 34 37 39 41 42 44 45 46 46 44 40 37 34 34 32 31 29 26 23 21 18 16 14 14 15 18 18 17 15 16 16 16 17 17 17
33 33 33 33 34 34 33 34 37 38 39 39 40 41 42 41 39 35 32 30 29 28 26 26 25 22 20 17 15 13 12 13 15 16 15 14 14 14 15 15 16 16 16

GFSGL_700_spd_045.txt.gz
Wind_Speed
32 35 36 36 35 34 33 34 34 34 34 35 35 35 35 36 36 36 37 37 35 34 35 38 39 40 42 41 40 37 36 35 35 30 30 32 35 39 43 46 48 51 54
34 36 36 37 36 35 35 36 36 36 37 37 36 36 36 37 37 37 37 36 36 35 36 37 38 39 40 39 36 34 33 33 30 31 32 35 37 41 45 48 51 53 56
35 37 38 39 37 36 37 38 38 38 39 38 38 38 38 38 38 38 35 35 34 34 36 37 36 37 39 36 34 33 32 30 31 34 36 38 40 44 47 49 53 55 57
37 39 40 40 38 37 39 39 40 40 40 39 39 40 40 39 38 38 34 33 33 35 36 36 35 37 35 34 33 33 32 31 33 36 39 40 43 45 50 53 54 56 58
40 42 42 42 41 40 42 42 43 43 42 41 41 41 40 40 40 40 34 32 34 35 36 33 35 35 33 33 34 34 33 33 36 39 41 43 44 47 51 55 58 59 58
43 43 45 45 44 42 43 45 45 45 43 43 42 40 41 41 40 37 31 31 35 36 34 33 35 34 34 34 36 36 36 37 39 42 43 45 46 47 51 55 57 60 62
40 45 47 47 44 44 45 45 46 45 44 44 44 41 41 44 37 34 28 33 36 35 33 35 34 34 35 36 37 39 39 41 42 44 46 46 46 47 51 54 57 59 58
38 44 47 48 46 45 45 45 46 47 47 46 43 42 44 37 37 29 31 35 35 34 35 35 36 35 36 38 39 42 43 44 43 45 47 46 45 47 51 56 58 57 56
39 40 45 47 46 46 46 46 46 52 47 44 43 45 39 37 31 29 34 34 34 34 35 36 37 38 37 39 43 44 46 46 45 47 48 47 47 48 51 56 56 57 56
40 39 45 47 49 48 47 47 50 48 42 42 45 40 35 31 29 32 33 33 35 34 36 38 39 38 39 42 46 47 48 45 47 48 48 49 49 50 53 55 55 55 56
38 42 47 50 53 50 49 48 50 43 43 43 36 31 30 30 30 30 32 34 35 36 38 38 38 39 42 45 47 48 47 46 47 48 49 51 51 52 55 55 53 54 53
39 45 50 50 48 40 37 38 36 32 23 25 25 27 28 26 27 31 34 36 36 38 38 38 40 43 45 47 48 49 48 49 50 50 52 52 52 54 56 55 52 50 50
34 31 29 28 24 21 23 26 27 29 25 23 25 25 25 28 31 33 35 36 38 39 39 41 43 46 49 50 49 50 51 51 52 53 54 54 55 58 57 55 52 49 48
25 22 20 18 18 21 24 25 25 24 24 24 25 26 28 31 33 35 36 38 38 40 41 44 48 50 50 51 51 52 53 53 55 56 56 57 60 59 57 55 51 48 47
15 15 15 16 16 18 20 22 23 24 25 26 28 30 32 34 34 36 37 39 41 43 45 48 50 51 51 51 52 53 53 56 57 57 59 60 59 58 57 54 50 46 46
15 16 17 19 20 22 24 25 25 26 27 30 32 33 35 37 38 40 41 43 45 47 50 50 51 50 50 51 52 54 55 58 60 61 62 62 60 59 57 53 48 43 43
16 18 19 19 20 20 22 24 26 29 32 33 35 37 39 41 42 43 45 46 48 49 50 49 47 48 50 53 56 59 61 62 62 63 63 62 61 59 55 49 44 40 40
16 18 19 21 22 24 26 28 31 33 35 37 39 41 43 44 45 45 44 45 47 48 46 46 48 50 53 57 60 62 62 63 63 63 62 61 59 55 51 45 39 37 37
21 23 25 27 29 30 31 33 35 37 39 41 43 43 45 46 46 45 45 46 46 43 45 48 51 54 57 59 62 63 64 63 61 59 58 55 52 49 44 38 33 32 33
27 29 31 33 34 36 37 37 39 40 41 42 43 44 43 43 42 43 45 43 43 45 47 50 54 57 59 61 62 62 60 57 55 54 52 47 42 39 34 30 29 29 29
31 32 34 36 37 38 38 39 39 40 41 41 41 41 41 41 43 40 39 41 43 46 50 53 56 58 59 58 56 52 51 50 48 45 41 35 30 26 25 25 26 26 24
33 35 35 36 36 37 38 38 39 39 39 40 40 40 39 37 37 39 40 42 45 48 51 54 56 55 51 47 44 43 43 40 36 32 25 21 19 19 20 22 22 21 20
32 32 32 33 34 35 36 37 38 38 38 36 35 34 35 37 38 40 42 45 47 50 52 53 49 43 41 39 36 35 33 30 26 20 16 14 15 16 17 18 18 18 18
32 33 34 35 35 36 36 36 35 34 33 33 35 36 36 38 39 42 43 45 46 47 46 42 37 36 33 32 30 28 27 23 18 15 13 12 13 15 15 16 16 17 16
33 33 34 35 35 34 34 34 34 34 36 37 36 36 37 39 40 41 41 42 42 40 37 34 32 31 29 26 25 23 22 19 15 14 12 12 12 14 15 15 16 15 15
35 35 35 35 35 36 36 36 36 38 37 36 37 37 38 38 39 38 38 38 37 35 32 30 29 28 26 23 22 21 19 18 15 13 13 13 12 13 15 15 15 14 15

GFSGL_700_spd_048.txt.gz
Wind_Speed
35 37 37 36 37 38 37 37 38 39 39 38 37 36 36 36 36 37 37 38 38 38 38 37 36 34 32 33 34 34 35 35 36 34 31 30 30 33 36 38 41 44 46
32 34 35 36 38 39 39 39 40 41 40 39 38 39 39 38 38 37 37 38 38 38 37 37 35 32 32 33 34 34 34 35 37 35 31 30 32 35 38 39 43 47 48
29 32 35 36 39 40 40 41 41 42 42 41 41 41 41 40 38 38 38 37 37 38 38 34 32 31 32 33 34 34 33 35 36 36 34 34 36 38 41 43 47 49 50
28 32 34 35 38 40 41 41 43 43 43 43 43 43 42 41 40 39 37 39 39 39 33 29 31 31 31 33 34 33 33 35 37 36 36 37 39 42 45 48 50 52 52
29 29 31 34 38 41 43 44 45 46 46 44 44 44 43 42 41 41 41 39 41 35 28 28 31 31 32 33 34 34 34 36 38 38 39 40 42 45 49 52 53 53 53
30 30 30 33 39 42 45 46 49 49 47 46 46 46 45 45 46 44 42 42 37 33 26 29 32 32 32 34 34 35 37 38 39 41 42 44 45 48 51 52 53 54 56
33 32 33 33 38 43 47 49 51 50 48 47 47 47 48 49 47 46 44 39 35 30 25 31 32 32 33 34 35 37 39 40 41 43 45 45 47 49 52 54 54 54 56
39 38 37 37 39 43 47 50 50 50 48 46 46 48 50 49 49 47 40 33 35 29 25 32 32 33 34 36 38 39 40 42 41 43 45 46 48 50 51 53 54 55 55
43 44 42 38 39 42 45 48 49 48 47 47 49 51 51 51 49 43 35 33 36 25 29 32 32 33 35 38 40 41 42 41 41 44 46 46 49 51 53 55 55 56 55
41 42 40 39 37 39 43 46 47 47 46 47 49 50 51 50 48 34 33 34 26 26 30 32 33 35 37 39 42 43 42 41 44 45 46 48 50 51 54 56 57 56 56
41 41 41 40 39 39 42 44 43 45 47 46 47 49 49 51 37 29 31 26 26 27 31 33 33 35 39 41 42 43 44 46 47 48 49 50 53 55 56 58 58 57 57
38 38 38 40 39 40 42 43 43 42 46 48 45 44 43 27 23 28 27 28 29 31 31 32 35 39 41 41 43 45 48 50 52 52 53 53 56 57 58 58 58 59 57
29 30 28 30 32 34 34 31 29 32 30 27 23 24 23 16 22 27 29 30 31 33 35 38 39 40 41 43 45 47 50 53 54 55 54 55 56 57 59 60 60 58 56
21 18 15 12 9 5 7 9 10 13 19 22 21 21 20 22 26 28 30 33 35 36 36 39 40 42 44 45 47 50 52 53 54 53 54 56 58 59 60 61 59 57 56
13 13 13 13 12 12 13 14 15 17 20 23 24 25 25 26 28 32 32 33 35 36 39 41 42 45 46 48 50 52 52 51 53 55 57 59 60 60 60 60 60 58 57
7 7 9 10 13 14 15 15 17 19 21 21 22 24 26 28 31 33 34 35 38 40 42 43 44 45 47 48 50 49 50 52 55 58 60 61 61 62 62 61 60 57 53
10 11 12 13 14 15 17 18 19 20 22 24 26 29 31 33 33 35 37 39 40 43 45 44 44 46 48 49 47 50 53 56 59 62 64 64 63 62 61 58 55 52 47
12 12 13 14 16 17 19 21 23 24 27 29 31 33 34 36 37 39 41 42 43 43 41 43 45 46 46 46 49 52 55 59 62 64 64 62 59 58 55 52 49 45 39
13 14 15 17 19 21 23 25 27 29 31 33 35 36 38 39 40 40 41 42 41 42 43 44 44 43 46 48 52 56 59 62 63 61 57 53 52 53 51 45 40 34 28
17 19 21 23 24 26 28 29 31 33 34 36 37 38 40 40 40 40 40 41 41 42 43 41 43 45 47 51 54 57 59 59 54 49 47 48 48 45 39 32 27 22 19
22 24 25 27 28 30 30 31 32 33 34 36 37 38 38 38 39 38 39 40 40 39 40 42 44 47 50 52 54 56 54 47 44 42 41 41 38 30 24 19 15 15 15
25 26 27 27 28 29 30 31 32 33 34 35 36 37 37 38 38 38 38 37 38 40 41 42 45 47 48 50 50 47 42 39 36 36 34 30 24 18 14 12 12 12 13
27 28 28 29 30 30 32 33 34 36 36 37 37 37 36 36 35 35 37 38 39 39 41 42 43 44 46 45 40 37 35 32 30 29 26 20 16 14 12 11 11 11 12
31 32 33 33 34 34 34 35 35 36 37 37 37 36 36 36 37 39 39 39 39 40 40 41 41 41 39 36 34 32 30 27 25 23 20 16 15 14 12 11 12 11 11
33 34 34 34 34 34 35 35 36 37 38 39 39 39 39 39 40 41 40 39 39 38 38 37 37 36 34 31 30 28 27 25 22 19 18 15 15 15 14 12 11 11 12
36 35 33 33 33 34 35 36 38 39 40 41 41 42 42 41 41 41 39 38 37 37 36 35 33 32 29 28 28 26 25 23 20 19 17 17 16 16 14 13 12 12 13